Regional Weather Roundup
Issued by NWS

Home | Current Version | Previous Version | Text Only | Print | Product List | Glossary On
Versions: 1 2 3 4 5 6 7 8 9 10 11 12 13 14 15 16 17 18 19 20 21 22 23 24 25 26 27 28 29 30 31 32 33 34 35 36 37 38 39 40 41 42 43 44 45 46 47 48 49 50
000
ASUS44 KFWD 280315
RWRTX
NORTH TEXAS HOURLY WEATHER ROUNDUP
NATIONAL WEATHER SERVICE FORT WORTH TX
1000 PM CDT WED MAY 27 2015

NOTE: "FAIR" INDICATES FEW OR NO CLOUDS BELOW 12,000 FEET WITH NO
SIGNIFICANT WEATHER AND/OR OBSTRUCTIONS TO VISIBILITY.

TXZ118-119-280400-
DALLAS/FORT WORTH METROPLEX

CITY           SKY/WX    TMP DP  RH WIND       PRES   REMARKS
DFW AIRPORT    CLOUDY    73  71  93 SE6       30.01F THUNDER
DALLAS LOVE    LGT RAIN  78  69  73 NE7       30.02R
FTW MEACHAM    CLOUDY    71  66  84 SE3       30.01F
DAL-EXECUTIVE  CLOUDY    74  68  81 SE8       30.02F
FTW-ALLIANCE   CLOUDY    68  64  87 S3        30.01F
FTW-NAS-JRB    TSTM      72  67  84 SE14G23   30.00F
FTW-SPINKS     RAIN      73  69  88 S8        30.04F
ARLINGTON      CLOUDY    75  70  84 SE8       30.03F
GRAND PRAIRIE  CLOUDY    74  71  90 SE5       30.03F
ADDISON        PTCLDY    79  66  65 SW3G12    30.05S
MESQUITE       CLOUDY    76  72  87 S9        30.04R
LANCASTER      CLOUDY    73  68  84 CALM      30.05F
$$

TXZ091>094-102>105-117-120-121-131>134-280400-
NORTH CENTRAL TEXAS

CITY           SKY/WX    TMP DP  RH WIND       PRES   REMARKS
SHRMAN/DENISON MOCLDY    75  70  85 S6        30.05R
GAINESVILLE    MOCLDY    71  62  74 SE7       30.06R
BOWIE          PTCLDY    69  61  75 SE9       30.04R
BRIDGEPORT     PTCLDY    69  65  88 SE8       30.06R
DECATUR        PTCLDY    69  61  76 S13       30.04S
DENTON         MOCLDY    70  69  97 CALM      30.00S
MCKINNEY       CLOUDY    79  71  76 SW6       30.03R
GREENVILLE     CLOUDY    77  70  78 S6        30.06R
ROCKWALL       CLOUDY   N/A N/A N/A S9        30.03R
TERRELL        CLOUDY    76  69  79 S5        30.06R
WAXAHACHIE     CLOUDY    71  71 100 SE3       30.06S
CLEBURNE       CLOUDY    77  73  88 NE13      30.06R
GRANBURY       CLOUDY    77  73  86 E7        30.05R THUNDER
$$

TXZ083>090-098>101-113>116-127>130-139>142-154-155-280400-
WESTERN NORTH TEXAS

CITY           SKY/WX    TMP DP  RH WIND       PRES   REMARKS
WICHITA FALLS  MOCLDY    73  70  90 SE7       30.00R
WF-KICKAPOO    MOCLDY    76  71  84 SE6       30.02R
VERNON         CLOUDY    76  66  71 SE10      30.00R
ABILENE        PTCLDY    76  69  79 S7        30.01R
ABILENE-DYESS  PTCLDY    76  66  71 S6        30.00R
BRECKENRIDGE   MOCLDY    76  67  74 SE9       30.02R
GRAHAM         PTCLDY    71  64  81 E6        30.02R
MINERAL WELLS  MOCLDY    73  66  78 SE12      30.03R
STEPHENVILLE   CLOUDY    76  70  82 E10       30.07R
COMANCHE       PTCLDY    75  74  95 SE7       30.04R
BROWNWOOD      PTCLDY    77  72  83 SE12      30.01S
COLEMAN        MOCLDY    76  71  85 S8        30.01S
BRADY          CLEAR     73  73 100 SE8       30.03R
$$

TXZ143>147-156>162-174-175-280400-
CENTRAL TEXAS

CITY           SKY/WX    TMP DP  RH WIND       PRES   REMARKS
WACO           PTCLDY    79  70  74 SE12      30.03R
WACO-TSTC      CLEAR     77  72  83 CALM      30.03R
WACO-MCGREGOR    N/A    N/A N/A N/A MISG        N/A
HILLSBORO      MOCLDY   N/A N/A N/A E8        30.04R
CORSICANA      CLOUDY    76  73  91 NE6       30.07R
MEXIA          PTCLDY    75  72  88 SE8       30.05R
HEARNE         MOCLDY    77  73  87 SE3       30.05R
CAMERON        MOCLDY    77  74  89 SE6       30.03S
TEMPLE         PTCLDY    77  70  78 E9        30.03R
KILLEEN        MOCLDY    76  73  89 SE13      30.02R
KILLEEN-SKYLRK MOCLDY    77  70  78 SE9       30.03R
FORT HOOD      MOCLDY    76  73  88 E10       30.03R
GATESVILLE     MOCLDY    77  72  83 SE3       30.06R
HAMILTON       CLOUDY    76  72  86 SE12      30.05R
LAMPASAS       MOCLDY    76  73  91 SE6       30.02S
$$

TXZ095>097-106>112-122>126-135>138-148>153-164>167-280400-
EAST TEXAS

CITY           SKY/WX    TMP DP  RH WIND       PRES   REMARKS
PARIS          CLOUDY    75  64  69 E8        30.05R
SULPHUR SPRNGS MOCLDY    79  70  73 SE6       30.06R
MOUNT PLEASANT PTCLDY    74  69  83 E3        30.06S
GILMER         MOCLDY    76  73  89 CALM      30.05S
TYLER          CLOUDY    77  70  79 SE5       30.05R
LONGVIEW       MOCLDY    77  74  90 CALM      30.05R
MARSHALL       PTCLDY    78  74  86 CALM      30.08S
ATHENS         CLOUDY    75  70  83 CALM      30.05R
PALESTINE      CLOUDY    77  73  86 CALM      30.06R
JACKSONVILLE   CLOUDY    77  71  82 CALM      30.08R
NACOGDOCHES    CLOUDY    75  73  94 SE6       30.06S
LUFKIN         MOCLDY    76  71  85 SE3       30.06R
$$

SUPPLEMENTAL OBSERVATIONS (CENTRAL)

CITY           SKY/WX    TMP DP  RH WIND       PRES   REMARKS
LAKE TEXOMA      N/A     79  68  69 SE3         N/A
CADDO GRASSLND   N/A     77  66  69 SE3         N/A
PAT MAYSE LAKE   N/A     75  68  78 E3          N/A
ATHENS           N/A     77  70  78 SE3         N/A
LAKE LIMESTONE   N/A     75  70  83 E2          N/A
MCGREGOR         N/A     77  70  78 SE7         N/A
$$

SUPPLEMENTAL OBSERVATIONS (WEST)

CITY           SKY/WX    TMP DP  RH WIND       PRES   REMARKS
MILLERS CREEK    N/A     75  70  83 SE8G17      N/A
LBJ GRASSLAND    N/A    N/A N/A N/A S9          N/A
COMANCHE         N/A     75  72  88 SE8         N/A
HAMBY            N/A     73  66  78 SE2G15      N/A
IVIE RESERVOIR   N/A     75  70  83 E8          N/A
COLORADO BEND    N/A     75  72  88 S7          N/A
$$

SUPPLEMENTAL OBSERVATIONS (EAST)

CITY           SKY/WX    TMP DP  RH WIND       PRES   REMARKS
CLARKSVILLE      N/A     75  70  83 SE3         N/A
TEXARKANA        N/A     70  66  88 CALM        N/A
LINDEN           N/A     72  66  83 CALM        N/A
GILMER           N/A     75  72  88 SE1         N/A
HENDERSON        N/A     75  70  83 CALM        N/A
LUFKIN           N/A     73  70  88 MISG        N/A
N SABINE NF      N/A     72  68  88 MISG        N/A
S SABINE NF      N/A     72  70  94 CALM        N/A
$$

SUPPLEMENTAL OBSERVATIONS ARE A COLLECTION OF AUTOMATED INSTRUMENTS
THAT ARE MAINTAINED BY A VARIETY OF FEDERAL AND STATE AGENCIES.
CERTAIN ELEMENTS...SUCH AS HUMIDITY VALUES AND SUSTAINED WIND
SPEEDS...MAY BE APPROXIMATED.



USA.gov is the U.S. government's official web portal to all federal, state and local government web resources and services.